{"data":{"norad_id":48314,"intl_designator":"2021-036AQ","name":"STARLINK-2549","alt_names":[],"object_type":"PAYLOAD","status":"ACTIVE","operator":null,"country":"US","launch_date":"2021-04-29","launch_site_code":"AFETR","launch_vehicle":null,"mission":null,"orbit_class":"UNKNOWN","rcs_meters":null,"size_class":null,"mass_kg":null,"dimensions":null,"purposes":["comms"],"wikipedia_slug":null,"has_3d_model":false,"image_url":null,"decayed_at":null,"tle_current":{"epoch":"2026-05-25T02:38:09.978144Z","epoch_age_seconds":68588,"freshness":"FRESH","line1":"1 48314U 21036AQ  26145.10983771 -.00000299  00000+0  21367-5 0  9990","line2":"2 48314  53.1607  95.4555 0001652  94.7006 265.4184 15.31700461279889","mean_motion":15.31700461,"eccentricity":0.0001652,"inclination_deg":53.1607,"raan_deg":95.4555,"arg_perigee_deg":94.7006,"mean_anomaly_deg":265.4184,"bstar":2.1367e-6,"rev_number":27988,"period_min":94.013159665687,"perigee_km":469.60718675639,"apogee_km":471.87005526157,"semimajor_km":6848.875621009,"source":"CELESTRAK","updated_at":"2026-05-25T13:38:16.680030Z"}}}